Flag for Poland Weather past 2 weeks in Chorzów, Poland

34 °F

Partly sunny.

Feels Like: 27 °F
Forecast: 25 / 33 °F
Wind: 8 mph from Northeast

Location: Katowice Airport

Current Time: Nov 27, 2015 at 3:37:45 PM

Latest Report: Nov 27, 2015 at 3:00 PM

Visibility: N/A

Pressure: 30.07 "Hg

Humidity: 70%

Dew point: 25 °F

Location of ChorzówLocation

Historic Weather in Chorzów — Graph


Chorzów temperature yesterday

Maximum temperature yesterday: 39 °F (at 2:30 PM)
Minimum temperature yesterday: 23 °F (at 9:30 PM)
Average temperature yesterday: 32 °F

Past Weeks' High & Low Weather Summary

High55 °F (Nov 18, 8:00 AM)100% (Nov 13, 1:00 AM)30.33 "Hg (Nov 13, 1:00 AM)
Low19 °F (Nov 27, 3:00 AM)56% (Nov 25, 2:00 PM)29.36 "Hg (Nov 21, 12:00 AM)
Average40 °F86%29.88 "Hg
* Reported Nov 12 2:00 PM — Nov 27 2:30 PM, Chorzów, Weather by CustomWeather, © 2015

Note: Actual official high and low records may vary slightly from our data, if they occured in-between our weather recording intervals... More about our weather records


Chorzów weather history for previous 24 hours

Time TempWeatherWind HumidityBarometerVisibility
2:30 PM
Fri, Nov 27
34 °FPartly sunny.7 mph75%30.07 "HgN/A
2:00 PM34 °FPartly sunny.7 mph75%30.07 "HgN/A
1:30 PM34 °FPartly sunny.6 mph81%30.07 "HgN/A
1:00 PM34 °FPartly sunny.7 mph81%30.07 "HgN/A
12:30 PM34 °FPartly sunny.7 mph81%30.09 "HgN/A
12:00 PM34 °FPassing clouds.6 mph87%30.09 "Hg6 mi
11:30 AM32 °FScattered clouds.7 mph93%30.09 "Hg6 mi
11:00 AM32 °FScattered clouds.7 mph93%30.09 "Hg4 mi
10:30 AM30 °FIce fog.1 mph100%30.09 "Hg3 mi
10:00 AM28 °FIce fog.1 mph100%30.12 "Hg3 mi
9:30 AM28 °FIce fog.2 mph93%30.12 "Hg2 mi
9:00 AM27 °FIce fog.1 mph93%30.12 "Hg2 mi
7:30 AM23 °FIce fog.3 mph93%30.09 "Hg3 mi
7:00 AM23 °FIce fog.2 mph93%30.09 "Hg3 mi
6:30 AM23 °FIce fog.1 mph93%30.09 "Hg3 mi
6:00 AM21 °FIce fog.1 mph93%30.09 "Hg3 mi
5:00 AM21 °FIce fog.2 mph93%30.09 "Hg3 mi
4:30 AM21 °FIce fog.2 mph93%30.09 "Hg3 mi
4:00 AM21 °FIce fog.1 mph93%30.09 "Hg2 mi
3:30 AM21 °FIce fog.5 mph93%30.09 "Hg1 mi
3:00 AM19 °FSleet. Overcast.1 mph93%30.09 "Hg1 mi
2:30 AM23 °FCold.1 mph93%30.09 "Hg1 mi
2:00 AM23 °FIce fog.2 mph93%30.09 "Hg0 mi
1:30 AM23 °FIce fog.2 mph100%30.09 "Hg0 mi
1:00 AM23 °FIce fog.2 mph100%30.09 "Hg0 mi
12:30 AM25 °FIce fog.2 mph93%30.09 "Hg0 mi
12:00 AM25 °FIce fog.5 mph93%30.09 "Hg0 mi
11:00 PM
Thu, Nov 26
25 °FIce fog.5 mph93%30.07 "Hg0 mi
10:30 PM23 °FCold.3 mph100%30.07 "Hg1 mi
10:00 PM23 °FIce fog.5 mph100%30.07 "Hg1 mi
9:30 PM23 °FIce fog.6 mph100%30.07 "Hg1 mi
9:00 PM25 °FCold.3 mph93%30.07 "Hg1 mi
8:30 PM25 °FIce fog.3 mph93%30.04 "Hg1 mi
8:00 PM25 °FIce fog.2 mph93%30.04 "Hg1 mi
7:30 PM25 °FIce fog.2 mph93%30.01 "Hg1 mi
7:00 PM27 °FIce fog.2 mph93%30.01 "Hg1 mi
6:30 PM27 °FIce fog.3 mph93%29.98 "Hg2 mi
6:00 PM27 °FIce fog.5 mph93%29.98 "Hg2 mi
5:30 PM28 °FIce fog.5 mph86%29.98 "Hg2 mi
5:00 PM30 °FIce fog.5 mph86%29.95 "Hg2 mi
4:30 PM32 °FIce fog.3 mph80%29.95 "Hg2 mi
4:00 PM34 °FFog.5 mph81%29.92 "Hg2 mi
3:30 PM36 °FFog.5 mph81%29.92 "Hg3 mi
3:00 PM37 °FFog.6 mph75%29.89 "Hg3 mi
Weather by CustomWeather, © 2015

See weather overviewHow to use our weather pages